Zurück zum Katalog

STARLINK-35819

AktivKommunikationVLEO
NORAD 66285·PAYLOAD·🇺🇸 United States

Gestartet Oct 31, 2025 von Vandenberg Space Force Base

Loading…

Nächste Überflüge (nächste 24 Stunden)

TLE

AktuellSource: CelesTrak SupGP

Epoche: Sep 14, 2026, 23:08 UTC

1 66285C 25247W   26257.96437500 -.00006462  00000+0 -19121-3 0  2576
2 66285  53.1587  29.6273 0000930  70.3517 153.4566 15.34347287    17

Verfolge STARLINK-35819 in Echtzeit mit AllMySat

Download on the App Store